| time (UTC) | temp F | wind direction | speed knots | gust knots | rain 1hr in | rain 24hr in | rain mn in | humidity % | barometer mb |
| 20260504175516 | 62 | 235 | 3.5 | 12.2 | 0.00 | 0.00 | 0.00 | 44 | 1009.4 |
| 20260504174516 | 63 | 174 | 3.5 | 8.7 | 0.00 | 0.00 | 0.00 | 44 | 1009.4 |
| 20260504173516 | 62 | 198 | 6.1 | 14.8 | 0.00 | 0.00 | 0.00 | 45 | 1009.4 |
| 20260504172516 | 60 | 226 | 5.2 | 12.2 | 0.00 | 0.00 | 0.00 | 47 | 1009.5 |
| 20260504171516 | 60 | 203 | 6.1 | 13.9 | 0.00 | 0.00 | 0.00 | 47 | 1009.6 |
| 20260504170516 | 60 | 219 | 4.3 | 10.4 | 0.00 | 0.00 | 0.00 | 48 | 1009.7 |
| 20260504150516 | 55 | 253 | 5.2 | 10.4 | 0.00 | 0.00 | 0.00 | 51 | 1010.7 |
| 20260504140516 | 52 | 215 | 4.3 | 10.4 | 0.00 | 0.00 | 0.00 | 54 | 1011.0 |
| 20260504130556 | 49 | 212 | 4.3 | 11.3 | 0.00 | 0.00 | 0.00 | 56 | 1011.5 |
| 20260504110517 | 41 | 323 | 0.9 | 2.6 | 0.00 | 0.00 | 0.00 | 71 | 1011.4 |
| 20260504100517 | 38 | 18 | 1.7 | 2.6 | 0.00 | 0.00 | 0.00 | 73 | 1011.5 |
| 20260504081517 | 39 | 9 | 0.9 | 1.7 | 0.00 | 0.00 | 0.00 | 70 | 1011.4 |
| 20260504080517 | 39 | 9 | 0.9 | 1.7 | 0.00 | 0.00 | 0.00 | 69 | 1011.5 |
| 20260504050536 | 39 | 0.0 | 0.9 | 0.00 | 0.00 | 0.00 | 75 | 1011.1 | |
| 20260504045516 | 39 | 355 | 0.9 | 1.7 | 0.00 | 0.00 | 0.00 | 74 | 1011.1 |
| 20260504044516 | 39 | 355 | 0.9 | 1.7 | 0.00 | 0.00 | 0.00 | 74 | 1011.2 |
| 20260504043516 | 39 | 355 | 0.0 | 0.9 | 0.00 | 0.00 | 0.00 | 74 | 1011.1 |
| 20260504042516 | 39 | 355 | 0.0 | 0.9 | 0.00 | 0.00 | 0.00 | 73 | 1011.2 |
| 20260504041516 | 39 | 355 | 0.0 | 1.7 | 0.00 | 0.00 | 0.00 | 71 | 1011.2 |
| 20260504040516 | 39 | 0.0 | 0.0 | 0.00 | 0.00 | 0.00 | 71 | 1011.1 | |
| 20260504035516 | 39 | 355 | 0.0 | 1.7 | 0.00 | 0.00 | 0.00 | 72 | 1011.2 |
| 20260504034516 | 39 | 355 | 0.0 | 0.9 | 0.00 | 0.00 | 0.00 | 74 | 1011.2 |
| 20260504033516 | 39 | 0.0 | 0.0 | 0.00 | 0.00 | 0.00 | 74 | 1011.2 | |
| 20260504032516 | 39 | 0.0 | 0.9 | 0.00 | 0.00 | 0.00 | 74 | 1011.2 | |
| 20260504031516 | 38 | 355 | 0.0 | 0.9 | 0.00 | 0.00 | 0.00 | 73 | 1011.2 |
| 20260504030516 | 38 | 355 | 0.0 | 0.9 | 0.00 | 0.00 | 0.00 | 71 | 1011.3 |
| 20260504025516 | 38 | 0.0 | 0.0 | 0.00 | 0.00 | 0.00 | 72 | 1011.2 | |
| 20260504024516 | 39 | 355 | 0.0 | 1.7 | 0.00 | 0.00 | 0.00 | 73 | 1011.2 |
| 20260504023516 | 39 | 0.0 | 0.0 | 0.00 | 0.00 | 0.00 | 70 | 1011.3 | |
| 20260504022516 | 40 | 355 | 0.0 | 0.9 | 0.00 | 0.00 | 0.00 | 70 | 1011.2 |
| 20260504021516 | 40 | 0.0 | 0.0 | 0.00 | 0.00 | 0.00 | 70 | 1011.1 | |
| 20260504020516 | 40 | 0.0 | 0.0 | 0.00 | 0.00 | 0.00 | 69 | 1011.1 | |
| 20260504015536 | 41 | 355 | 0.0 | 0.9 | 0.00 | 0.00 | 0.00 | 69 | 1011.0 |
| 20260504014516 | 41 | 0.0 | 0.0 | 0.00 | 0.00 | 0.00 | 67 | 1011.0 | |
| 20260504013516 | 42 | 355 | 0.0 | 1.7 | 0.00 | 0.00 | 0.00 | 68 | 1010.9 |
| 20260504012516 | 42 | 0.0 | 0.9 | 0.00 | 0.00 | 0.00 | 65 | 1010.9 | |
| 20260504011536 | 42 | 355 | 0.9 | 1.7 | 0.00 | 0.00 | 0.00 | 64 | 1010.8 |
| 20260504010516 | 43 | 353 | 0.9 | 1.7 | 0.00 | 0.00 | 0.00 | 64 | 1010.6 |
| 20260504005516 | 43 | 348 | 0.9 | 1.7 | 0.00 | 0.00 | 0.00 | 62 | 1010.6 |
| 20260504004516 | 43 | 348 | 0.9 | 1.7 | 0.00 | 0.00 | 0.00 | 62 | 1010.6 |
| 20260504003516 | 44 | 348 | 0.9 | 1.7 | 0.00 | 0.00 | 0.00 | 62 | 1010.6 |
| 20260504002516 | 44 | 348 | 0.9 | 1.7 | 0.00 | 0.00 | 0.00 | 60 | 1010.5 |
| 20260504001516 | 45 | 343 | 0.9 | 1.7 | 0.00 | 0.00 | 0.00 | 60 | 1010.4 |
| 20260504000516 | 45 | 31 | 0.9 | 2.6 | 0.00 | 0.00 | 0.00 | 58 | 1010.4 |
| 20260503235516 | 46 | 298 | 0.0 | 1.7 | 0.00 | 0.00 | 0.00 | 56 | 1010.3 |
| 20260503234516 | 46 | 264 | 0.9 | 3.5 | 0.00 | 0.00 | 0.00 | 56 | 1010.2 |
| 20260503233516 | 46 | 271 | 0.9 | 2.6 | 0.00 | 0.00 | 0.00 | 55 | 1010.1 |
| 20260503232516 | 46 | 230 | 1.7 | 4.3 | 0.00 | 0.00 | 0.00 | 55 | 1010.1 |
| 20260503231516 | 46 | 219 | 1.7 | 8.7 | 0.00 | 0.00 | 0.00 | 54 | 1010.1 |
| 20260503230516 | 47 | 210 | 2.6 | 14.8 | 0.00 | 0.00 | 0.00 | 54 | 1010.1 |
| 20260503225516 | 47 | 248 | 2.6 | 8.7 | 0.00 | 0.00 | 0.00 | 53 | 1010.1 |
| 20260503224516 | 48 | 214 | 2.6 | 7.0 | 0.00 | 0.00 | 0.00 | 51 | 1010.0 |
| 20260503223536 | 47 | 214 | 2.6 | 8.7 | 0.00 | 0.00 | 0.00 | 50 | 1010.0 |
| 20260503222536 | 48 | 226 | 1.7 | 6.1 | 0.00 | 0.00 | 0.00 | 50 | 1009.9 |
| 20260503221536 | 48 | 238 | 2.6 | 8.7 | 0.00 | 0.00 | 0.00 | 49 | 1009.9 |
| 20260503220516 | 48 | 230 | 3.5 | 11.3 | 0.00 | 0.00 | 0.00 | 49 | 1009.8 |
| 20260503215516 | 48 | 231 | 2.6 | 9.6 | 0.00 | 0.00 | 0.00 | 48 | 1009.7 |
| 20260503214516 | 48 | 263 | 3.5 | 12.2 | 0.00 | 0.00 | 0.00 | 46 | 1009.7 |
| 20260503213516 | 48 | 318 | 1.7 | 20.0 | 0.00 | 0.00 | 0.00 | 45 | 1009.5 |
| 20260503212516 | 49 | 197 | 3.5 | 13.0 | 0.00 | 0.00 | 0.00 | 44 | 1009.4 |
| 20260503211516 | 50 | 243 | 4.3 | 10.4 | 0.00 | 0.00 | 0.00 | 43 | 1009.3 |
| 20260503210516 | 49 | 234 | 4.3 | 8.7 | 0.00 | 0.00 | 0.00 | 43 | 1009.2 |
| 20260503205516 | 50 | 221 | 5.2 | 14.8 | 0.00 | 0.00 | 0.00 | 41 | 1009.3 |
| 20260503204516 | 50 | 227 | 3.5 | 11.3 | 0.00 | 0.00 | 0.00 | 40 | 1009.2 |
| 20260503203516 | 51 | 213 | 3.5 | 8.7 | 0.00 | 0.00 | 0.00 | 40 | 1009.3 |
| 20260503202516 | 50 | 220 | 4.3 | 13.9 | 0.00 | 0.00 | 0.00 | 40 | 1009.3 |
| 20260503201516 | 49 | 76 | 3.5 | 15.6 | 0.00 | 0.00 | 0.00 | 38 | 1009.3 |
| 20260503200516 | 49 | 245 | 5.2 | 14.8 | 0.00 | 0.00 | 0.00 | 39 | 1009.3 |
| 20260503195517 | 49 | 236 | 6.1 | 17.4 | 0.00 | 0.00 | 0.00 | 38 | 1009.4 |
| 20260503194517 | 49 | 214 | 3.5 | 9.6 | 0.00 | 0.00 | 0.00 | 40 | 1009.5 |
| 20260503193517 | 47 | 206 | 3.5 | 12.2 | 0.00 | 0.00 | 0.00 | 41 | 1009.6 |
| 20260503192537 | 48 | 206 | 3.5 | 13.0 | 0.00 | 0.00 | 0.00 | 42 | 1009.7 |
| 20260503191517 | 48 | 235 | 7.0 | 13.9 | 0.00 | 0.00 | 0.00 | 41 | 1009.8 |
| 20260503190517 | 47 | 228 | 5.2 | 11.3 | 0.00 | 0.00 | 0.00 | 44 | 1009.7 |
| 20260503185517 | 46 | 233 | 4.3 | 12.2 | 0.00 | 0.00 | 0.00 | 44 | 1009.9 |
| 20260503184518 | 46 | 267 | 4.3 | 16.5 | 0.00 | 0.00 | 0.00 | 44 | 1010.0 |
| 20260503183517 | 46 | 233 | 3.5 | 11.3 | 0.00 | 0.00 | 0.00 | 45 | 1010.1 |
| 20260503182517 | 47 | 208 | 2.6 | 11.3 | 0.00 | 0.00 | 0.00 | 44 | 1010.1 |
| 20260503181537 | 46 | 280 | 4.3 | 11.3 | 0.00 | 0.00 | 0.00 | 47 | 1010.2 |
| 20260503180517 | 44 | 258 | 6.1 | 13.0 | 0.00 | 0.00 | 0.00 | 47 | 1010.2 |